Find Starlink 34042

NORAD ID: 63838 Int'l Des: 2025-093 Owner: SPXS Country: US Constellation: starlink operational
LEOCIRCULAR

当前视图

正在加载3D地球...

About Starlink 34042

Starlink 34042 (NORAD 63838) is a starlink constellation satellite (v2 mini) launched May 7, 2025 by SPXS of US. It operates in LEO, CIRCULAR orbit with a mass of 575.00 kg.

关于 Starlink 34042

正在加载描述...

即将过境

Passes for default location (London). Set your location on the main map for personalized predictions.

高度历史

Loading altitude history...

两行轨道根数

1 63838U 25093C 26193.10118808 .00009571 00000-0 35687-3 0 9999
2 63838 43.0005 91.4591 0002756 249.2152 110.8405 15.27579985 67040
Epoch: Jul 12, 2026 • Age: 23 hours

当前状态

高度 484.0 km
远地点 / 近地点 N/A
速度 7.63 km/s
星下点 27.06°N, 72.81°W
发射日期 May 7, 2025
运行时间 1.1 years
类型 internet

技术详情

分类 Payload
质量 575.00 kg
干质量 530.00 kg
总质量 575.00 kg
长度 0.30 m
直径 4.10 m
跨度 29.00 m
形状 Box + pan
制造商 SPXS
平台类型 Starlink V2MO
阶段状态 In Orbit
所有者/国家 SPXS/US

Most Searched